Situs API Video Gratis Terbaik

AVDBAPI.COM

Cari katalog, periksa data, dan salin URL API bersih dari satu dasbor cepat.

Telegram Gabung komunitas Telegram untuk update!
Today
0
Pembaruan Hari Ini
Censored
314141
Video Disensor
Total
474352
Total Video

Daftar Video

Data terbaru diurutkan berdasarkan waktu pembaruan.

ID Nama CODE Kategori Diperbarui API
265291 H-220327 Ki220327 Ai Sasaki Gadis 19 Tahun yang Menggoda H-220327 Tanpa sensor 2025-08-29 04:53:30 API
265290 PP022 Fallen Angel No.022 Miho PP022 Tanpa sensor 2025-08-29 04:53:20 API
265289 CARIBBEANCOMPR-012916 Matsumoto Mei CARIBBEANCOMPR-012916_490 Tanpa sensor 2025-08-29 04:53:10 API
265288 SIMM-764 Kocchan (18) / Gue Ngentot Pacar Kedua Gue Bareng Temen Gue♪ [Bagian 1] Si Iblis yang Bikin Temen Gue Meluk Dia di Depan Mata ●Threesome! Gue ngos-ngosan, dan akhirnya gak peduli lagi itu kontol siapa [Bagian 2] Kekasih SIMM-764 Disensor (Mosaik) 2025-08-29 04:53:00 API
265287 HEYZO-2581 Ona Rimaku dan Guchogucho! Ngentot Puas Bareng Cewek Mesum Vol.21 HEYZO-2581 Tanpa sensor 2025-08-29 04:52:50 API
265286 081821-001 Antologi Bloomers Seksi: Tsubasa Miyashita, Shizuku Hatano, Mirei Yokoyama, Airi Mizusawa, Sanae Akino, Kaede Qingdao 081821-001 Tanpa sensor 2025-08-29 04:52:40 API
265285 H0930-ORI1612 Sayaka Matsuura Wanita 27 Tahun H0930-ORI1612 Tanpa sensor 2025-08-29 04:52:30 API
265284 021820_975 Tokimeki ~ Pacarku yang mendekat dengan daya tarik seksualnya yang unik ~ 021820_975 Tanpa sensor 2025-08-29 04:52:20 API
265283 FC2-PPV-4493122 Harga terbatas cuma 1980pt selama 3 hari! Koleksi 3 wanita cantik penurut dari seri populer! Video underground terbaru langsung rilis! FC2-PPV-4493122 Tanpa sensor 2025-08-29 04:52:10 API
265282 073020-335 Istri montok nakal yang dripping cairan pria dan disemprot sperma ke mana 073020-335 Tanpa sensor 2025-08-29 04:52:00 API
265280 012621-01 Pergi ke Warnet Bareng Pacar 012621-01 Tanpa sensor 2025-08-29 04:51:40 API
265279 C0930-HITOZUMA1351 Tamao Cantik Berusia 26 Tahun C0930-HITOZUMA1351 Tanpa sensor 2025-08-29 04:51:30 API
265278 012916-490 Laforet Girl Vol.65 Aktris Superb Yang Bisa Keluar 3 Kali Berturut 012916-490 Tanpa sensor 2025-08-29 04:51:20 API
265277 HEYZO-2583 Gadis Amatir Pakai Baju Renang Seksi Bikin Aku Sange HEYZO-2583 Tanpa sensor 2025-08-29 04:51:10 API
265276 H-220326 Rie Tanaka Gadis 23 Tahun yang Seksi H-220326 Tanpa sensor 2025-08-29 04:51:00 API
265275 080120-336 Wanita Matang Kembali Untuk Diperas Anusnya Sampai Puas 080120-336 Tanpa sensor 2025-08-29 04:50:50 API
265274 H0930-KI210921 Wanita Matang 48 Tahun Tae Nakagawa H0930-KI210921 Tanpa sensor 2025-08-29 04:50:40 API
265273 022020_001 @YOU ~ Versi Spesial Paling Mantap ~ 022020_001 Tanpa sensor 2025-08-29 04:50:30 API
265272 C0930-KI210330 Wanita Matang 40 Tahun Satomi Miyake C0930-KI210330 Tanpa sensor 2025-08-29 04:50:20 API
265271 081921-001 Ensiklopedia Aktris Seksi Suzumiya Non 081921-001 Tanpa sensor 2025-08-29 04:50:10 API
265270 H4610-KI220329 Mika Yamamoto Gadis Cantik Usia 22 Tahun H4610-KI220329 Tanpa sensor 2025-08-29 04:50:00 API
265269 012821-01 Akhirnya Bisa Ngentot Miss Hotetor Populer yang Susah Banget Di 012821-01 Tanpa sensor 2025-08-29 04:49:50 API
265268 080420-337 Wanita Matang Cantik Ranbu ~ Edisi Masturbasi & Main Sendiri ~ 080420-337 Tanpa sensor 2025-08-29 04:49:40 API
265266 H0930-KI210923 Mika Tamura Wanita Seksi Usia 32 Tahun H0930-KI210923 Tanpa sensor 2025-08-29 04:49:20 API
265265 082021-001 File Gairah Wanita Asaka Sera 082021-001 Tanpa sensor 2025-08-29 04:49:10 API
265263 HEYZO-2584 Rahasia Cabul Istri Tak Bermoral yang Tidak Bisa Diberitahukan ke Suaminya Vol.3 HEYZO-2584 Tanpa sensor 2025-08-29 04:48:50 API
265262 KB1532 Team Kimura Edisi Spesial - KB1532 Tanpa sensor 2025-08-29 04:48:40 API
265261 022220_976 Koleksi Model Seksi Berbalut Pakaian Dalam Putih 022220_976 Tanpa sensor 2025-08-29 04:48:30 API
265260 020416-491 Pertama Kali Dicokot Kontol Hitam 020416-491 Tanpa sensor 2025-08-29 04:48:20 API
265259 C0930-KI210401 Yuriko Takasugi, Wanita Seksi 31 Tahun C0930-KI210401 Tanpa sensor 2025-08-29 04:48:10 API
265258 080720-338 Istri Orang Mengemis Creampie Saat Suaminya Sedang Pergi 080720-338 Tanpa sensor 2025-08-29 04:48:00 API
265257 SE216 Tubuh Neshin SE216 Tanpa sensor 2025-08-29 04:47:50 API
265256 FC2-PPV-4493024 Ngewe Hentai Bitchlina Bosan sama pelanggan bar yang lembek, saatnya aksi tempur kecepatan tinggi yang gila! FC2-PPV-4493024 Tanpa sensor 2025-08-29 04:47:40 API
265255 H0930-TK0042 Wanita Seksi 31 Tahun Tosano Rina H0930-TK0042 Tanpa sensor 2025-08-29 04:47:30 API
265254 082121-001 Califure ~ Kalau Minta, Ini Seragam Sailor yang Seksi ~ Mikuro Komori 082121-001 Tanpa sensor 2025-08-29 04:47:20 API
265253 H4610-KI220331 Aya Sakuragi Usia 20 Tahun H4610-KI220331 Tanpa sensor 2025-08-29 04:47:10 API
265252 HEYZO-2585 Nikmatnya Massage Erotis! ~ Bersama Yurigawa Sara ~ HEYZO-2585 Tanpa sensor 2025-08-29 04:47:00 API
265251 122915-001 Otowa Leon Yang Seksi dan Menggoda 122915-001 Tanpa sensor 2025-08-29 04:46:50 API
265250 022320_977 Yukie Natsuki Yang Seksi dan Menggoda 022320_977 Tanpa sensor 2025-08-29 04:46:40 API
265249 080820-339 Istri Tanpa Bra yang Mengacaukan Segalanya 080820-339 Tanpa sensor 2025-08-29 04:46:30 API
265248 C0930-TK0031 Ogawara Mei Cantik Usia 29 Tahun C0930-TK0031 Tanpa sensor 2025-08-29 04:46:20 API
265247 HEYZO-2616 Tukar Istri Amatir: Miyazaki & Goto Latihan Tukar Pasangan, Enema Anal dan Oral Bersamaan HEYZO-2616 Tanpa sensor 2025-08-29 04:46:10 API
265246 PP024 Fallen Angel No.024 Chiaki PP024 Tanpa sensor 2025-08-29 04:46:00 API
265245 082221-001 Nana Ueyama, istri empuk nan menggoda yang bikin aku melayang 082221-001 Tanpa sensor 2025-08-29 04:45:50 API
265244 H0930-KI210926 Gadis Cantik 22 Tahun Chizuru Tokunaga H0930-KI210926 Tanpa sensor 2025-08-29 04:45:40 API
265243 H-220331 Aya Sakuragi Gadis 20 Tahun yang Menggoda H-220331 Tanpa sensor 2025-08-29 04:45:30 API
265242 022520_978 Ayo Enjain Sang Dewi Rina Shirakawa 022520_978 Tanpa sensor 2025-08-29 04:45:20 API
265241 080920-340 Angkat ujung yukata dan waktunya pakopako! 080920-340 Tanpa sensor 2025-08-29 04:45:10 API
265240 FC2-PPV-4493322 fc2-ppv-4493322 FC2-PPV-4493322 Tanpa sensor 2025-08-29 04:45:00 API
265239 020416-492 Suntikan Sperma ke Dalam Perut Gadis Cantik Berkulit Transparan 020416-492 Tanpa sensor 2025-08-29 04:44:50 API